Location: Chiroubles
(46.1812°N, 4.6660°E)
Time: 23:00:09
(UTC+00:00)

SR - Pass Details

Date: 27 November 2020
Orbit: 575 x 880 km, 66.7° (Epoch: 24 January)

Event Time Altitude Azimuth Distance (km) Brightness Sun altitude
Rises 17:48:16 0° 188° (S) 2,786 ? -18.4°
Reaches altitude 10° 17:50:34 10° 179° (S) 1,910 ? -18.8°
Enters shadow 17:54:01 34° 126° (SE) 1,015 ? -19.4°
